Location: Staunton
(38.1490°N, 79.0720°W)
Time: 09:16:40
(UTC-04:00)

ISS - Pass Details

Date: 14 October 2017
Orbit: 401 x 408 km, 51.6° (Epoch: 18 October)

Event Time Altitude Azimuth Distance (km) Brightness Sun altitude
Rises 21:02:53 0° 291° (WNW) 2,321 1.2 -28.9°
Reaches altitude 10° 21:05:42 10° 264° (W) 1,459 -0.2 -29.4°
Enters shadow 21:06:21 12° 253° (WSW) 1,334 -0.6 -29.5°
